TimeCDT,TemperatureF,Dew PointF,Humidity,Sea Level PressureIn,VisibilityMPH,Wind Direction,Wind SpeedMPH,Gust SpeedMPH,PrecipitationIn,Events,Conditions,WindDirDegrees,DateUTC
12:15 AM,51.8,48.0,87,30.14,10.0,Calm,Calm,-,N/A,,Clear,0,2013-09-08 05:15:00
12:35 AM,54.5,50.2,85,30.14,10.0,Calm,Calm,-,N/A,,Clear,0,2013-09-08 05:35:00
12:55 AM,51.8,48.9,90,30.14,10.0,Calm,Calm,-,N/A,,Clear,0,2013-09-08 05:55:00
1:15 AM,53.1,49.3,87,30.14,10.0,Calm,Calm,-,N/A,,Clear,0,2013-09-08 06:15:00
1:35 AM,51.8,48.2,88,30.14,10.0,Calm,Calm,-,N/A,,Clear,0,2013-09-08 06:35:00
1:55 AM,54.5,50.5,86,30.13,10.0,NE,3.5,-,N/A,,Clear,40,2013-09-08 06:55:00
2:15 AM,53.1,49.3,87,30.14,10.0,Calm,Calm,-,N/A,,Clear,0,2013-09-08 07:15:00
2:35 AM,54.3,50.0,85,30.14,10.0,Calm,Calm,-,N/A,,Clear,0,2013-09-08 07:35:00
2:55 AM,51.8,48.2,88,30.14,10.0,Calm,Calm,-,N/A,,Clear,0,2013-09-08 07:55:00
3:15 AM,51.8,49.1,90,30.14,10.0,Calm,Calm,-,N/A,,Clear,0,2013-09-08 08:15:00
3:35 AM,51.8,49.1,90,30.14,10.0,Calm,Calm,-,N/A,,Clear,0,2013-09-08 08:35:00
3:55 AM,51.8,48.7,89,30.15,10.0,Calm,Calm,-,N/A,,Clear,0,2013-09-08 08:55:00
4:15 AM,51.8,49.1,90,30.15,10.0,Calm,Calm,-,N/A,,Clear,0,2013-09-08 09:15:00
4:35 AM,51.8,49.6,92,30.15,10.0,Calm,Calm,-,N/A,,Clear,0,2013-09-08 09:35:00
4:55 AM,48.9,46.8,92,30.15,10.0,Calm,Calm,-,N/A,,Clear,0,2013-09-08 09:55:00
5:15 AM,47.1,45.0,92,30.15,10.0,Calm,Calm,-,N/A,,Clear,0,2013-09-08 10:15:00
5:35 AM,47.1,45.0,92,30.15,10.0,Calm,Calm,-,N/A,,Clear,0,2013-09-08 10:35:00
5:55 AM,48.7,46.8,93,30.15,10.0,Calm,Calm,-,N/A,,Clear,0,2013-09-08 10:55:00
6:15 AM,50.7,48.6,92,30.17,10.0,East,3.5,-,N/A,,Clear,100,2013-09-08 11:15:00
6:35 AM,51.8,49.1,90,30.17,10.0,Calm,Calm,-,N/A,,Clear,0,2013-09-08 11:35:00
6:55 AM,49.1,46.6,91,30.16,10.0,Calm,Calm,-,N/A,,Clear,0,2013-09-08 11:55:00
7:15 AM,49.5,46.9,91,30.16,10.0,Calm,Calm,-,N/A,,Clear,0,2013-09-08 12:15:00
7:35 AM,54.5,50.2,85,30.15,10.0,East,3.5,-,N/A,,Clear,90,2013-09-08 12:35:00
7:55 AM,56.8,51.6,83,30.15,10.0,East,3.5,-,N/A,,Clear,100,2013-09-08 12:55:00
8:15 AM,56.8,50.0,78,30.14,10.0,East,4.6,-,N/A,,Clear,100,2013-09-08 13:15:00
8:35 AM,59.4,50.9,74,30.15,10.0,East,4.6,-,N/A,,Clear,100,2013-09-08 13:35:00
8:55 AM,59.4,49.5,70,30.16,10.0,SE,4.6,-,N/A,,Clear,130,2013-09-08 13:55:00
9:15 AM,61.9,50.2,65,30.16,10.0,ESE,6.9,-,N/A,,Clear,120,2013-09-08 14:15:00
9:35 AM,63.1,49.8,62,30.17,10.0,SE,8.1,-,N/A,,Clear,140,2013-09-08 14:35:00
9:55 AM,63.0,48.7,60,30.17,10.0,ESE,9.2,-,N/A,,Clear,120,2013-09-08 14:55:00
10:15 AM,63.1,48.0,58,30.17,10.0,SE,9.2,17.3,N/A,,Clear,140,2013-09-08 15:15:00
10:35 AM,64.0,49.1,58,30.15,10.0,ESE,8.1,-,N/A,,Clear,120,2013-09-08 15:35:00
10:55 AM,65.1,47.1,52,30.16,10.0,SE,12.7,-,N/A,,Clear,140,2013-09-08 15:55:00
11:15 AM,65.7,46.9,51,30.16,10.0,SSE,13.8,18.4,N/A,,Clear,150,2013-09-08 16:15:00
11:35 AM,67.1,46.8,48,30.16,10.0,SE,12.7,17.3,N/A,,Clear,130,2013-09-08 16:35:00
11:55 AM,66.2,47.1,50,30.16,10.0,ESE,9.2,-,N/A,,Clear,120,2013-09-08 16:55:00
12:15 PM,67.5,48.6,51,30.14,10.0,ESE,11.5,-,N/A,,Clear,120,2013-09-08 17:15:00
12:35 PM,69.4,48.9,48,30.13,10.0,SSE,10.4,16.1,N/A,,Clear,150,2013-09-08 17:35:00
12:55 PM,69.4,48.7,48,30.12,10.0,SE,11.5,-,N/A,,Clear,140,2013-09-08 17:55:00
1:15 PM,69.4,48.9,48,30.11,10.0,ESE,9.2,-,N/A,,Clear,120,2013-09-08 18:15:00
1:35 PM,69.4,48.7,48,30.11,10.0,South,8.1,-,N/A,,Clear,190,2013-09-08 18:35:00
1:55 PM,69.4,48.7,48,30.11,10.0,SE,8.1,-,N/A,,Clear,140,2013-09-08 18:55:00
2:15 PM,72.0,49.5,45,30.10,10.0,South,8.1,-,N/A,,Clear,170,2013-09-08 19:15:00
2:35 PM,70.5,48.4,45,30.09,10.0,SSE,6.9,-,N/A,,Clear,160,2013-09-08 19:35:00
2:55 PM,69.4,48.7,48,30.08,10.0,South,9.2,-,N/A,,Clear,170,2013-09-08 19:55:00
3:15 PM,69.4,49.5,49,30.08,10.0,SSE,8.1,-,N/A,,Clear,160,2013-09-08 20:15:00
3:35 PM,72.0,49.6,45,30.07,10.0,SSE,9.2,-,N/A,,Clear,150,2013-09-08 20:35:00
3:55 PM,72.0,50.2,46,30.06,10.0,SSE,8.1,-,N/A,,Clear,150,2013-09-08 20:55:00
4:15 PM,71.6,51.1,48,30.05,10.0,SSE,8.1,-,N/A,,Clear,160,2013-09-08 21:15:00
4:35 PM,69.4,50.2,50,30.04,10.0,SSE,8.1,-,N/A,,Clear,150,2013-09-08 21:35:00
4:55 PM,69.4,50.4,51,30.03,10.0,SE,6.9,-,N/A,,Clear,140,2013-09-08 21:55:00
5:15 PM,69.4,52.3,54,30.03,10.0,SSE,9.2,-,N/A,,Clear,150,2013-09-08 22:15:00
5:35 PM,67.3,51.8,58,30.03,10.0,SSE,4.6,-,N/A,,Clear,150,2013-09-08 22:35:00
5:55 PM,67.1,53.1,61,30.02,10.0,SSE,4.6,-,N/A,,Clear,160,2013-09-08 22:55:00
6:15 PM,67.1,54.0,63,30.03,10.0,SSE,4.6,-,N/A,,Clear,150,2013-09-08 23:15:00
6:35 PM,65.7,53.6,65,30.02,10.0,SSE,4.6,-,N/A,,Mostly Cloudy,150,2013-09-08 23:35:00
6:55 PM,65.3,52.7,64,30.02,10.0,South,5.8,-,N/A,,Overcast,170,2013-09-08 23:55:00
7:15 PM,64.4,51.6,63,30.03,10.0,South,5.8,-,N/A,,Mostly Cloudy,170,2013-09-09 00:15:00
7:35 PM,64.4,51.8,64,30.03,10.0,South,4.6,-,N/A,,Mostly Cloudy,170,2013-09-09 00:35:00
7:55 PM,64.4,51.1,62,30.02,10.0,SSE,6.9,-,N/A,,Overcast,160,2013-09-09 00:55:00
8:15 PM,63.9,51.1,63,30.02,10.0,SSE,6.9,-,N/A,Rain,Light Rain,160,2013-09-09 01:15:00
8:35 PM,63.1,50.9,64,30.02,10.0,SSE,5.8,-,N/A,,Mostly Cloudy,160,2013-09-09 01:35:00
8:55 PM,63.1,50.4,63,30.02,10.0,SSE,8.1,-,N/A,,Mostly Cloudy,160,2013-09-09 01:55:00
9:15 PM,63.1,50.7,64,30.01,10.0,South,8.1,-,N/A,,Mostly Cloudy,170,2013-09-09 02:15:00
9:35 PM,63.0,50.9,65,30.02,10.0,South,5.8,-,N/A,,Overcast,170,2013-09-09 02:35:00
9:55 PM,61.9,50.2,65,30.02,10.0,South,6.9,-,N/A,,Light Drizzle,170,2013-09-09 02:55:00
10:15 PM,61.9,50.9,67,30.01,10.0,SSE,6.9,-,N/A,,Light Drizzle,150,2013-09-09 03:15:00
10:35 PM,61.9,51.3,68,30.01,10.0,SSE,8.1,-,N/A,,Light Drizzle,150,2013-09-09 03:35:00
10:55 PM,61.9,52.3,71,30.00,10.0,SE,5.8,-,N/A,,Overcast,140,2013-09-09 03:55:00
11:15 PM,61.9,52.9,72,30.00,10.0,SSE,5.8,-,N/A,,Overcast,150,2013-09-09 04:15:00
11:35 PM,61.9,53.2,73,30.00,10.0,SSE,8.1,-,N/A,,Mostly Cloudy,160,2013-09-09 04:35:00
11:55 PM,61.9,53.6,74,30.00,10.0,SSE,5.8,-,N/A,,Mostly Cloudy,160,2013-09-09 04:55:00